Find OneWeb SL0315

NORAD ID: 49101 Int'l Des: 2021-075 Owner: ONEWEBN Country: UK Constellation: oneweb operational
LEOCIRCULARPOLARONEWEB_TYPE

現在のビュー

3D地球を読み込み中...

About OneWeb SL0315

OneWeb SL0315 (NORAD 49101) is a oneweb constellation satellite launched Aug 21, 2021 by ONEWEBN of UK. It operates in LEO, CIRCULAR, POLAR, ONEWEB_TYPE orbit with a mass of 148.00 kg.

OneWeb SL0315について

説明を読み込み中...

次回通過

Passes for default location (London). Set your location on the main map for personalized predictions.

高度履歴

Loading altitude history...

軌道要素

1 49101U 21075AC 26169.04711302 .00000082 00000-0 19229-3 0 9998
2 49101 87.8948 350.4731 0002059 81.6560 278.4802 13.12442597235285
Epoch: Jun 18, 2026 • Age: 14 hours

現在のステータス

高度 1220.9 km
速度 7.24 km/s
衛星直下点 -16.49°S, 40.08°E
打ち上げ日 Aug 21, 2021
運用期間 4.8 years
タイプ internet

技術仕様

分類 Payload
質量 148.00 kg
乾燥質量 140.00 kg
総質量 148.00 kg
長さ 1.30 m
直径 1.00 m
スパン 5.00 m
形状 Trapezoid+2 pan
製造者 ONEWUS
バスタイプ ARROW
フェーズステータス In Orbit
所有者/国 ONEWEBN/UK

Most Searched